Location: Unspecified
(0.0000°N, 0.0000°E)
Time: 10:59:06
(UTC+00:00)

MIDAS 4 DEB - Pass Details

Date: 17 November 2025
Orbit: 3306 x 3926 km, 95.8° (Epoch: 14 April)

Event Time Altitude Azimuth Distance (km) Brightness Sun altitude
Exits shadow 18:43:12 14° 59° (ENE) 6,233 ? -13.7°
Maximum altitude 18:55:03 27° 105° (ESE) 5,417 ? -16.5°
Drops below altitude 10° 19:09:39 10° 156° (SSE) 6,962 ? -19.9°
Sets 19:15:29 0° 167° (SSE) 8,049 ? -21.3°
